Find Starlink 32276

NORAD ID: 60944 Int'l Des: 2024-155 Owner: SPXS Country: US Constellation: starlink operational
LEOCIRCULAR

实时位置

正在加载3D地球...

关于 Starlink 32276

正在加载描述...

即将过境

Passes for default location (London). Set your location on the main map for personalized predictions.

高度历史

Loading altitude history...

两行轨道根数

1 60944U 24155W 26127.64019713 .00005482 00000-0 19707-3 0 9995
2 60944 53.1580 216.0442 0001493 94.4780 265.6391 15.30204013 95415
Epoch: May 7, 2026 • Age: 10 hours

当前状态

高度 477.9 km
速度 7.63 km/s
星下点 39.90°N, 109.85°E
发射日期 Aug 31, 2024
运行时间 1.6 years
类型 internet

技术详情

分类 Payload
质量 730.00 kg
干质量 700.00 kg
总质量 730.00 kg
长度 0.30 m
直径 4.10 m
跨度 29.00 m
形状 Box + pan
制造商 SPXS
平台类型 Starlink V2M
阶段状态 In Orbit
所有者/国家 SPXS/US

Most Searched